Lakeville, MN

8:20 PM CST on January 20, 2017 (GMT -0600)
Airlake

Weather History for KLVN - March, 2012

Change the Weather History Date:

Wednesday, March 14, 2012

  Actual Average Record
Temperature  
Mean Temperature 54 °F -  
Max Temperature 69 °F 38 °F 69 °F (2012)
Min Temperature 39 °F 22 °F -10 °F (1975)
Degree Days  
Heating Degree Days 11    
Growing Degree Days 4 (Base 50)    
Moisture  
Dew Point 45 °F    
Average Humidity 71    
Maximum Humidity 100    
Minimum Humidity 46    
Precipitation  
Precipitation 0.00 in - - ()
Sea Level Pressure  
Sea Level Pressure 29.78 in    
Wind  
Wind Speed 5 mph (SSW)    
Max Wind Speed 10 mph    
Max Gust Speed -    
Visibility 10 miles    
Events      
Averages and records for this station are not official NWS values.
T = Trace of Precipitation, MM = Missing Value Source: NWS Daily Summary

Daily Weather History Graph

Daily Weather History Graph

Search for Another Location

Airport or City:

Trip Planner

Search our weather history database for the weather conditions in past years. The results will help you decide how hot, cold, wet, or windy it might be!

Date:

Astronomy

Mar. 14, 2012 Rise Set
Actual Time 7:26 AM CDT 7:18 PM CDT
Civil Twilight 6:57 AM CDT 7:47 PM CDT
Nautical Twilight 6:23 AM CDT 8:21 PM CDT
Astronomical Twilight 5:48 AM CDT 8:56 PM CDT
Moon 2:10 AM CDT (3/14) 11:21 AM CDT (3/14)
Length of Visible Light 12h 50m
Length of Day
11h 52m
Waning Gibbous, 54% of the Moon is Illuminated
Mar 14
Waning Gibbous
Mar 14
Last Quarter
Mar 22
New
Mar 30
First Quarter
Apr 6
Full

Hourly Weather History & Observations

Time (CDT) Temp. Windchill Dew Point Humidity Pressure Visibility Wind Dir Wind Speed Gust Speed Precip Events Conditions
12:13 AM 48.2 °F - 41.0 °F 76% 29.84 in 10.0 mi SSE 5.8 mph - N/A   Clear
12:34 AM 50.0 °F - 41.0 °F 71% 29.83 in 10.0 mi SSE 4.6 mph - N/A   Clear
12:53 AM 50.0 °F - 42.8 °F 76% 29.83 in 10.0 mi SE 4.6 mph - N/A   Clear
1:13 AM 48.2 °F - 42.8 °F 82% 29.82 in 10.0 mi SE 4.6 mph - N/A   Clear
1:33 AM 48.2 °F - 42.8 °F 82% 29.81 in 10.0 mi SE 5.8 mph - N/A   Clear
1:53 AM 50.0 °F - 44.6 °F 82% 29.80 in 10.0 mi SSE 6.9 mph - N/A   Clear
2:13 AM 50.0 °F - 44.6 °F 82% 29.79 in 10.0 mi SE 5.8 mph - N/A   Clear
2:33 AM 50.0 °F - 44.6 °F 82% 29.79 in 10.0 mi SE 4.6 mph - N/A   Clear
2:53 AM 48.2 °F - 44.6 °F 87% 29.78 in 10.0 mi ESE 3.5 mph - N/A   Clear
3:13 AM 44.6 °F 42.2 °F 41.0 °F 87% 29.77 in 10.0 mi ENE 4.6 mph - N/A   Clear
3:34 AM 44.6 °F 42.2 °F 42.8 °F 93% 29.77 in 10.0 mi East 4.6 mph - N/A   Clear
3:53 AM 44.6 °F 43.1 °F 41.0 °F 87% 29.76 in 10.0 mi ESE 3.5 mph - N/A   Clear
4:13 AM 44.6 °F 42.2 °F 42.8 °F 93% 29.75 in 10.0 mi SE 4.6 mph - N/A   Clear
4:34 AM 48.2 °F - 44.6 °F 87% 29.74 in 10.0 mi SE 3.5 mph - N/A   Clear
4:53 AM 44.6 °F 42.2 °F 41.0 °F 87% 29.74 in 10.0 mi ESE 4.6 mph - N/A   Clear
5:13 AM 42.8 °F 40.1 °F 41.0 °F 93% 29.73 in 10.0 mi ESE 4.6 mph - N/A   Clear
5:34 AM 41.0 °F - 39.2 °F 93% 29.73 in 10.0 mi Calm Calm - N/A   Clear
5:53 AM 39.2 °F - 39.2 °F 100% 29.74 in 7.0 mi Calm Calm - N/A   Clear
6:13 AM 44.6 °F 43.1 °F 42.8 °F 93% 29.74 in 10.0 mi SE 3.5 mph - N/A   Clear
6:34 AM 44.6 °F 43.1 °F 42.8 °F 93% 29.73 in 10.0 mi SE 3.5 mph - N/A   Clear
6:53 AM 39.2 °F - 37.4 °F 93% 29.74 in 7.0 mi Calm Calm - N/A   Clear
7:13 AM 39.2 °F 35.0 °F 39.2 °F 100% 29.73 in 7.0 mi East 5.8 mph - N/A   Clear
7:33 AM 39.2 °F - 37.4 °F 93% 29.73 in 7.0 mi Calm Calm - N/A   Clear
7:53 AM 39.2 °F 37.0 °F 39.2 °F 100% 29.74 in 7.0 mi SSE 3.5 mph - N/A   Clear
8:14 AM 48.2 °F - 46.4 °F 93% 29.74 in 10.0 mi South 8.1 mph - N/A   Clear
8:33 AM 50.0 °F - 46.4 °F 87% 29.74 in 10.0 mi South 8.1 mph - N/A   Clear
8:53 AM 51.8 °F - 46.4 °F 82% 29.75 in 10.0 mi South 6.9 mph - N/A   Clear
9:14 AM 53.6 °F - 46.4 °F 77% 29.77 in 10.0 mi South 5.8 mph - N/A   Clear
9:33 AM 53.6 °F - 48.2 °F 82% 29.75 in 10.0 mi South 9.2 mph - N/A   Clear
9:53 AM 55.4 °F - 48.2 °F 77% 29.76 in 10.0 mi SSW 6.9 mph - N/A   Clear
10:14 AM 57.2 °F - 50.0 °F 77% 29.75 in 10.0 mi SSW 4.6 mph - N/A   Clear
10:33 AM 60.8 °F - 48.2 °F 63% 29.76 in 10.0 mi SW 4.6 mph - N/A   Clear
10:53 AM 60.8 °F - 48.2 °F 63% 29.76 in 10.0 mi SW 9.2 mph - N/A   Clear
11:14 AM 62.6 °F - 50.0 °F 63% 29.77 in 10.0 mi SW 6.9 mph - N/A   Clear
11:33 AM 62.6 °F - 48.2 °F 59% 29.77 in 10.0 mi WSW 6.9 mph - N/A   Clear
11:53 AM 62.6 °F - 48.2 °F 59% 29.77 in 10.0 mi WSW 8.1 mph - N/A   Clear
12:14 PM 62.6 °F - 50.0 °F 63% 29.78 in 10.0 mi WSW 6.9 mph - N/A   Clear
12:33 PM 64.4 °F - 48.2 °F 56% 29.78 in 10.0 mi WSW 10.4 mph - N/A   Clear
12:53 PM 64.4 °F - 48.2 °F 56% 29.78 in 10.0 mi West 5.8 mph - N/A   Clear
1:14 PM 64.4 °F - 48.2 °F 56% 29.77 in 10.0 mi West 4.6 mph - N/A   Clear
1:33 PM 64.4 °F - 48.2 °F 56% 29.77 in 10.0 mi South 3.5 mph - N/A   Clear
1:53 PM 66.2 °F - 48.2 °F 52% 29.77 in 10.0 mi WSW 3.5 mph - N/A   Clear
2:14 PM 66.2 °F - 48.2 °F 52% 29.77 in 10.0 mi West 5.8 mph - N/A   Clear
2:33 PM 66.2 °F - 48.2 °F 52% 29.78 in 10.0 mi SW 6.9 mph - N/A   Clear
2:53 PM 66.2 °F - 48.2 °F 52% 29.78 in 10.0 mi West 5.8 mph - N/A   Clear
3:14 PM 68.0 °F - 48.2 °F 49% 29.78 in 10.0 mi West 3.5 mph - N/A   Clear
3:33 PM 68.0 °F - 48.2 °F 49% 29.78 in 10.0 mi SW 4.6 mph - N/A   Clear
3:53 PM 69.8 °F - 48.2 °F 46% 29.79 in 10.0 mi WSW 5.8 mph - N/A   Clear
4:13 PM 69.8 °F - 48.2 °F 46% 29.79 in 10.0 mi West 4.6 mph - N/A   Clear
4:34 PM 69.8 °F - 48.2 °F 46% 29.80 in 10.0 mi Calm Calm - N/A   Clear
4:53 PM 69.8 °F - 48.2 °F 46% 29.80 in 10.0 mi West 5.8 mph - N/A   Clear
5:13 PM 69.8 °F - 48.2 °F 46% 29.81 in 10.0 mi West 4.6 mph - N/A   Clear
5:33 PM 69.8 °F - 48.2 °F 46% 29.81 in 10.0 mi WNW 6.9 mph - N/A   Clear
5:53 PM 68.0 °F - 48.2 °F 49% 29.82 in 10.0 mi West 4.6 mph - N/A   Clear
6:14 PM 68.0 °F - 48.2 °F 49% 29.82 in 10.0 mi West 3.5 mph - N/A   Clear
6:33 PM 66.2 °F - 48.2 °F 52% 29.83 in 10.0 mi WSW 3.5 mph - N/A   Clear
6:53 PM 64.4 °F - 48.2 °F 56% 29.83 in 10.0 mi Calm Calm - N/A   Clear
7:13 PM 60.8 °F - 48.2 °F 63% 29.84 in 10.0 mi West 3.5 mph - N/A   Clear
7:33 PM 59.0 °F - 46.4 °F 63% 29.85 in 10.0 mi West 3.5 mph - N/A   Clear
7:53 PM 53.6 °F - 46.4 °F 77% 29.86 in 10.0 mi West 4.6 mph - N/A   Clear
8:14 PM 53.6 °F - 46.4 °F 77% 29.86 in 10.0 mi West 4.6 mph - N/A   Clear
8:33 PM 48.2 °F - 44.6 °F 87% 29.87 in 10.0 mi West 3.5 mph - N/A   Clear
8:53 PM 48.2 °F - 44.6 °F 87% 29.87 in 10.0 mi West 3.5 mph - N/A   Clear
9:13 PM 46.4 °F 45.2 °F 42.8 °F 87% 29.87 in 10.0 mi West 3.5 mph - N/A   Clear
9:33 PM 46.4 °F - 44.6 °F 93% 29.87 in 10.0 mi Calm Calm - N/A   Clear
9:53 PM 51.8 °F - 44.6 °F 76% 29.87 in 10.0 mi Calm Calm - N/A   Clear
10:14 PM 46.4 °F - 42.8 °F 87% 29.87 in 10.0 mi Calm Calm - N/A   Clear
10:33 PM 44.6 °F - 42.8 °F 93% 29.87 in 10.0 mi Calm Calm - N/A   Clear
10:53 PM 44.6 °F 42.2 °F 42.8 °F 93% 29.88 in 10.0 mi NW 4.6 mph - N/A   Clear
11:14 PM 48.2 °F - 42.8 °F 82% 29.89 in 10.0 mi NW 4.6 mph - N/A   Clear
11:33 PM 48.2 °F - 42.8 °F 82% 29.89 in 10.0 mi NNW 4.6 mph - N/A   Clear
11:54 PM 48.2 °F - 39.2 °F 71% 29.89 in 10.0 mi NNW 3.5 mph - N/A   Clear